Starlink 4043

operational
NORAD ID: 52836 Int'l Des: 2022-062 Owner: SPXS Country: US Constellation: starlink
LEOCIRCULAR

关于 Starlink 4043

正在加载描述...

实时位置

正在加载3D地球...

即将过境

高度历史

Altitude vs Time

uPlot chart will show altitude changes over time

两行轨道根数

1 52836U 22062G 25257.98307381 -.00005115 00000-0 -30351-3 0 9995
2 52836 53.2164 103.2166 0000599 93.1899 266.9162 15.08841421179258
Epoch: Sep 14, 2025 • Age: 24 hours

当前状态

高度 547.0 km
速度 7.59 km/s
星下点 -24.05°S, 94.65°E
发射日期 Jun 17, 2022
运行时间 3.2 years
类型 internet

技术详情

分类 Payload
质量 297.00 kg
干质量 275.00 kg
总质量 297.00 kg
长度 0.20 m
直径 2.80 m
跨度 9.00 m
形状 Box + pan
制造商 SPXS
平台类型 Starlink
阶段状态 In Orbit
所有者/国家 SPXS/US

大型星座

Loading constellations...